This demonstration page uses our WeatherBlox Daily Observations layout. Learn more.

Left ArrowRight Arrow

40.92945, -100.16068

Hourly Observations for May 24, 2015

Temp ( °F °C ) Dew Point ( °F °C ) Humidity (%) Winds ( mph kmh ) Pressure ( in mb ) Visibility ( mi km ) Precip ( " mm )
12:15 am 00:15 Cloudy 58 14.5 57 13.8 96 96 ESE 10 17 29.94 1014 7 11.26538 N/A
12:35 am 00:35 Cloudy with Mist and Fog 58 14.5 57 14 97 97 E 10 17 29.94 1014 5 8.0467 N/A
12:55 am 00:55 Cloudy with Rain 58 14.5 57 14 97 97 ESE 12 19 29.94 1014 1.75 2.816345 0.01 0.254
1:15 am 01:15 Cloudy with Drizzle 58 14.5 57 14 97 97 ESE 12 19 29.94 1014 2.5 4.02335 N/A
1:35 am 01:35 Cloudy with Mist and Fog 58 14.5 57 14 97 97 ESE 9 15 29.91 1013 2.5 4.02335 N/A
1:55 am 01:55 Cloudy with Mist and Fog 58 14.5 57 14 97 97 E 15 24 29.88 1012 4 6.43736 N/A
2:15 am 02:15 Cloudy with Mist and Fog 59 14.9 58 14.2 96 96 E 12 19 29.88 1012 3 4.82802 N/A
2:35 am 02:35 Cloudy with Mist and Fog 59 15 58 14.3 96 96 ESE 7 11 29.91 1013 4 6.43736 N/A
2:55 am 02:55 Cloudy with Mist and Fog 59 15 58 14.4 96 96 SE 8 13 29.91 1013 1 1.60934 N/A
3:15 am 03:15 Cloudy with Mist and Fog 59 15 58 14.4 96 96 SE 8 13 29.88 1012 1 1.60934 N/A
3:35 am 03:35 Cloudy with Mist and Fog 58 14.6 57 14.1 97 97 SE 8 13 29.88 1012 0.75 1.207005 N/A
3:55 am 03:55 Cloudy with Mist and Fog 58 14.6 57 14.1 97 97 SE 7 11 29.88 1012 1 1.60934 0.01 0.254
4:15 am 04:15 Cloudy with Mist and Fog 59 14.8 58 14.3 97 97 SSE 6 9 29.88 1012 1 1.60934 N/A
4:35 am 04:35 Cloudy with Mist and Fog 59 14.8 58 14.3 97 97 SSE 6 9 29.88 1012 1 1.60934 N/A
4:55 am 04:55 Cloudy with Mist and Fog 59 15 58 14.5 97 97 SSE 3 6 29.88 1012 1.25 2.011675 N/A
5:15 am 05:15 Cloudy with Drizzle 59 15 58 14.5 97 97 N N/A 29.88 1012 1 1.60934 N/A
5:35 am 05:35 Cloudy with Drizzle 59 14.9 58 14.4 97 97 N N/A 29.88 1012 1.25 2.011675 N/A
5:55 am 05:55 Cloudy with Drizzle 59 14.8 58 14.3 97 97 N N/A 29.88 1012 1.75 2.816345 N/A
6:15 am 06:15 Cloudy with Drizzle 58 14.6 58 14.2 97 97 SE 3 6 29.88 1012 2.5 4.02335 N/A
6:35 am 06:35 Mostly Cloudy with Mist and Fog 58 14.3 57 13.9 97 97 N N/A 29.88 1012 4 6.43736 N/A
6:55 am 06:55 Sunny with Mist and Fog 57 14.1 57 13.7 97 97 N N/A 29.88 1012 4 6.43736 N/A
7:15 am 07:15 Mostly Cloudy with Mist and Fog 57 13.8 56 13.3 97 97 N N/A 29.88 1012 2 3.21868 N/A
7:35 am 07:35 Cloudy with Mist and Fog 58 14.6 58 14.2 97 97 N N/A 29.88 1012 1.5 2.41401 N/A
7:55 am 07:55 Cloudy 58 14.7 58 14.4 98 98 N N/A 29.85 1011 10 16.0934 N/A
8:15 am 08:15 Cloudy 59 15 58 14.5 97 97 SE 3 6 29.85 1011 10 16.0934 N/A
8:35 am 08:35 Cloudy 59 15 58 14.5 97 97 SE 3 6 29.85 1011 10 16.0934 N/A
8:55 am 08:55 Cloudy 59 14.8 58 14.2 96 96 SSE 5 7 29.85 1011 10 16.0934 N/A
9:15 am 09:15 Cloudy 59 15 58 14.3 96 96 N N/A 29.85 1011 10 16.0934 N/A
9:35 am 09:35 Cloudy 59 15 58 14.3 96 96 N N/A 29.85 1011 10 16.0934 N/A
9:55 am 09:55 Cloudy 59 15.1 58 14.2 94 94 N N/A 29.85 1011 10 16.0934 N/A
10:15 am 10:15 Cloudy 60 15.6 58 14.4 93 93 N N/A 29.83 1010 10 16.0934 N/A
10:35 am 10:35 Cloudy 61 16.2 58 14.6 90 90 N N/A 29.83 1010 10 16.0934 N/A
10:55 am 10:55 Cloudy 61 16.2 58 14.6 90 90 SSW 3 6 29.83 1010 10 16.0934 N/A
11:15 am 11:15 Cloudy 62 16.4 58 14.4 88 88 N N/A 29.83 1010 10 16.0934 N/A
11:35 am 11:35 Cloudy 62 16.6 58 14.5 88 88 N N/A 29.83 1010 10 16.0934 N/A
11:55 am 11:55 Cloudy 62 16.6 57 14.1 85 85 W 3 6 29.83 1010 10 16.0934 N/A
12:15 pm 12:15 Cloudy 63 17.2 58 14.4 84 84 N N/A 29.83 1010 10 16.0934 N/A
12:35 pm 12:35 Cloudy 63 17.1 58 14.4 84 84 N 3 6 29.83 1010 10 16.0934 N/A
12:55 pm 12:55 Mostly Cloudy 63 17.3 58 14.4 83 83 N N/A 29.83 1010 10 16.0934 N/A
1:15 pm 13:15 Cloudy 63 17.2 57 14 82 82 N N/A 29.83 1010 10 16.0934 N/A
1:35 pm 13:35 Cloudy 63 17.1 57 14 82 82 N N/A 29.8 1009 10 16.0934 N/A
1:55 pm 13:55 Cloudy 63 17.1 57 14 82 82 N N/A 29.8 1009 10 16.0934 N/A
2:15 pm 14:15 Cloudy with Rain 62 16.7 58 14.4 86 86 SE 3 6 29.8 1009 4 6.43736 N/A
2:35 pm 14:35 Cloudy with Light Rain 61 16.3 58 14.5 89 89 N N/A 29.8 1009 4 6.43736 N/A
2:55 pm 14:55 Cloudy with Drizzle 62 16.4 58 14.7 90 90 N N/A 29.8 1009 7 11.26538 N/A
3:15 pm 15:15 Cloudy 62 16.5 59 14.9 90 90 N N/A 29.77 1008 7 11.26538 N/A
3:35 pm 15:35 Cloudy 61 16.3 58 14.7 90 90 N N/A 29.77 1008 10 16.0934 N/A
3:55 pm 15:55 Cloudy 63 17.1 59 15.2 89 89 N N/A 29.77 1008 10 16.0934 N/A
4:15 pm 16:15 Cloudy 63 17.4 60 15.5 89 89 E 3 6 29.77 1008 10 16.0934 N/A
4:35 pm 16:35 Mostly Cloudy 64 17.7 59 15.2 85 85 N N/A 29.77 1008 10 16.0934 N/A
4:55 pm 16:55 Cloudy 65 18.1 60 15.3 84 84 SSE 3 6 29.71 1006 10 16.0934 N/A
5:15 pm 17:15 Mostly Cloudy 65 18.6 60 15.6 83 83 SE 5 7 29.71 1006 10 16.0934 N/A
5:35 pm 17:35 Cloudy 66 18.7 60 15.4 81 81 SE 7 11 29.71 1006 10 16.0934 N/A
5:55 pm 17:55 Mostly Cloudy 67 19.3 60 15.4 78 78 ESE 9 15 29.71 1006 10 16.0934 N/A
6:15 pm 18:15 Partly Cloudy 66 18.7 60 15.5 82 82 E 12 19 29.71 1006 10 16.0934 N/A
6:35 pm 18:35 Partly Cloudy 65 18.5 59 15.1 81 81 SE 8 13 29.68 1005 10 16.0934 N/A
6:55 pm 18:55 Mostly Cloudy 65 18.1 59 15.2 83 83 ESE 12 19 29.68 1005 10 16.0934 N/A
7:15 pm 19:15 Cloudy 64 18 59 15.1 83 83 ESE 9 15 29.68 1005 10 16.0934 N/A
7:35 pm 19:35 Cloudy 64 18 59 15.1 83 83 SE 7 11 29.71 1006 10 16.0934 N/A
7:55 pm 19:55 Cloudy 64 17.7 59 15 84 84 ESE 8 13 29.68 1005 10 16.0934 N/A
8:15 pm 20:15 Mostly Cloudy 64 17.5 59 14.8 84 84 SE 7 11 29.71 1006 10 16.0934 N/A
8:35 pm 20:35 Cloudy 63 17.3 58 14.7 85 85 SE 6 9 29.74 1007 10 16.0934 N/A
8:55 pm 20:55 Cloudy 63 17.1 59 15 88 88 ESE 9 15 29.74 1007 10 16.0934 N/A
9:15 pm 21:15 Cloudy 63 17.1 58 14.7 86 86 ESE 5 7 29.74 1007 10 16.0934 N/A
9:35 pm 21:35 Mostly Cloudy 62 16.4 58 14.5 89 89 ESE 7 11 29.74 1007 10 16.0934 N/A
9:55 pm 21:55 Partly Cloudy 60 15.5 57 14 91 91 SE 5 7 29.74 1007 10 16.0934 N/A
10:15 pm 22:15 Partly Cloudy 61 16 59 14.8 93 93 SE 6 9 29.74 1007 10 16.0934 N/A
10:35 pm 22:35 Mostly Cloudy 61 16 58 14.7 92 92 SSE 5 7 29.77 1008 10 16.0934 N/A
10:55 pm 22:55 Cloudy 61 16.2 59 15.1 93 93 SE 3 6 29.77 1008 10 16.0934 N/A
11:15 pm 23:15 Mostly Cloudy 61 16.3 59 15.1 93 93 SE 5 7 29.74 1007 10 16.0934 N/A
11:35 pm 23:35 Mostly Cloudy with Light Rain 58 14.3 53 11.8 85 85 W 16 26 29.8 1009 10 16.0934 N/A
11:55 pm 23:55 Mostly Cloudy with Light Rain 56 13.5 53 11.6 88 88 NW 7 11 29.77 1008 10 16.0934 N/A

Powered by AerisWeather